EI7IG-1 Weather Reports


Display with metric or nautical units.
time (UTC)temp
F
wind
direction
speed
MPH
gust
MPH
rain 1hr
in
rain 24hr
in
rain mn
in
humidity
%
barometer
mb
20181115183125 51 269 0.0 6.0 0.00 0.06 0.00 94 1027.2
20181115182125 51 226 1.0 5.0 0.00 0.06 0.00 94 1027.1
20181115181125 51 303 1.0 6.0 0.00 0.06 0.00 95 1027.0
20181115180125 51 261 1.0 7.0 0.00 0.06 0.00 95 1026.8
20181115175125 52 228 0.0 8.0 0.00 0.06 0.00 95 1026.4
20181115174125 52 217 1.0 9.0 0.00 0.05 0.00 95 1026.3
20181115173125 52 281 7.0 9.0 0.00 0.05 0.00 95 1026.3
20181115172125 52 277 1.0 7.0 0.00 0.05 0.00 95 1026.2
20181115171125 51 255 3.0 4.0 0.00 0.05 0.00 95 1026.0
20181115170125 51 278 2.0 4.0 0.00 0.05 0.00 95 1025.9
20181115165125 51 239 1.0 4.0 0.00 0.05 0.00 95 1025.9
20181115164125 51 196 1.0 6.0 0.00 0.05 0.00 95 1025.6
20181115163125 51 242 3.0 6.0 0.00 0.05 0.00 95 1025.5
20181115162125 51 277 1.0 6.0 0.00 0.05 0.00 95 1025.5
20181115161125 51 267 1.0 6.0 0.00 0.05 0.00 94 1025.6
20181115160125 51 275 0.0 6.0 0.00 0.05 0.00 94 1025.7
20181115155125 51 290 0.0 7.0 0.00 0.05 0.00 93 1025.8
20181115154125 52 212 1.0 8.0 0.00 0.05 0.00 92 1025.7
20181115153125 52 298 2.0 9.0 0.00 0.05 0.00 92 1025.6
20181115152125 52 350 4.0 7.0 0.00 0.05 0.00 92 1025.6
20181115151125 52 315 2.0 8.0 0.00 0.05 0.00 93 1025.4
20181115150125 53 348 3.0 7.0 0.00 0.05 0.00 94 1025.2
20181115145125 53 285 2.0 9.0 0.00 0.05 0.00 95 1025.0
20181115144125 53 315 3.0 10.0 0.00 0.05 0.00 95 1024.9
20181115143125 54 329 3.0 18.0 0.00 0.05 0.00 95 1024.7
20181115142125 54 219 2.0 17.0 0.00 0.04 0.00 96 1024.5
20181115141125 54 226 5.0 14.0 0.00 0.04 0.00 95 1024.5
20181115140125 54 266 2.0 17.0 0.00 0.04 0.00 95 1024.4
20181115135125 54 200 7.0 18.0 0.00 0.04 0.00 95 1024.5
20181115134125 54 203 9.0 16.0 0.00 0.04 0.00 95 1024.5
20181115133125 54 282 5.0 13.0 0.00 0.04 0.00 95 1024.5
20181115132125 54 267 4.0 18.0 0.00 0.04 0.00 95 1024.4
20181115131126 54 235 8.0 16.0 0.00 0.04 0.00 95 1024.5
20181115130125 54 267 7.0 21.0 0.00 0.04 0.00 95 1024.4
20181115125125 54 255 9.0 17.0 0.00 0.04 0.00 95 1024.3
20181115124125 54 190 6.0 21.0 0.00 0.04 0.00 95 1024.3
20181115123125 54 231 9.0 21.0 0.00 0.04 0.00 95 1024.2
20181115122125 54 270 5.0 19.0 0.00 0.04 0.00 95 1024.3
20181115121125 55 234 12.0 19.0 0.00 0.04 0.00 95 1024.3
20181115120125 55 248 9.0 15.0 0.00 0.04 0.00 95 1024.2
20181115115125 55 200 5.0 18.0 0.00 0.04 0.00 95 1024.1
20181115114125 55 214 7.0 17.0 0.00 0.04 0.00 95 1024.1
20181115113125 55 224 10.0 16.0 0.00 0.04 0.00 95 1024.0
20181115112125 55 259 12.0 18.0 0.00 0.04 0.00 96 1024.1
20181115111125 55 273 12.0 14.0 0.00 0.04 0.00 96 1024.0
20181115110125 55 245 6.0 16.0 0.00 0.04 0.00 96 1023.9
20181115105125 55 150 3.0 13.0 0.00 0.04 0.00 96 1023.9
20181115104125 55 218 9.0 14.0 0.00 0.04 0.00 96 1023.9
20181115103125 55 228 11.0 14.0 0.00 0.04 0.00 96 1023.8
20181115102125 55 283 10.0 15.0 0.00 0.04 0.00 96 1023.8
20181115101125 55 266 4.0 17.0 0.00 0.04 0.00 96 1023.8
20181115100125 55 295 5.0 18.0 0.00 0.04 0.00 97 1023.7
20181115095125 55 245 9.0 15.0 0.00 0.04 0.00 97 1023.7
20181115094125 55 207 6.0 13.0 0.00 0.04 0.00 97 1023.6
20181115093125 55 260 7.0 14.0 0.00 0.04 0.00 97 1023.5
20181115092125 55 212 8.0 15.0 0.00 0.04 0.00 97 1023.5
20181115091125 55 205 4.0 14.0 0.00 0.04 0.00 97 1023.5
20181115090125 55 200 7.0 17.0 0.00 0.04 0.00 97 1023.5
20181115085125 55 174 4.0 14.0 0.00 0.04 0.00 97 1023.4
20181115084125 54 194 5.0 19.0 0.00 0.04 0.00 98 1023.3
20181115083125 54 270 7.0 16.0 0.00 0.04 0.00 98 1023.3
20181115082125 53 226 5.0 0.0 0.00 0.04 0.00 100 1023.5
20181115081125 53 226 5.0 0.0 0.00 0.04 0.00 100 1023.4
20181115080125 53 226 5.0 0.0 0.00 0.04 0.00 100 1023.4
20181115075125 53 226 5.0 0.0 0.00 0.04 0.00 100 1023.3
20181115074125 53 226 5.0 0.0 0.00 0.04 0.00 100 1023.3
20181115073125 53 226 5.0 0.0 0.00 0.04 0.00 100 1023.3
20181115072125 53 226 5.0 0.0 0.00 0.04 0.00 100 1023.4
20181115071125 53 226 5.0 0.0 0.00 0.04 0.00 100 1023.3
20181115070124 53 226 5.0 0.0 0.00 0.04 0.00 100 1023.3
20181115065125 53 226 5.0 0.0 0.00 0.04 0.00 100 1023.4
20181115064125 53 226 5.0 0.0 0.00 0.04 0.00 100 1023.5
20181115063125 53 226 5.0 0.0 0.00 0.04 0.00 100 1023.5
20181115062125 53 226 5.0 0.0 0.00 0.04 0.00 100 1023.6
20181115061124 53 226 5.0 0.0 0.00 0.04 0.00 100 1023.6
20181115060125 53 226 5.0 0.0 0.00 0.04 0.00 100 1023.6
20181115055125 53 226 5.0 0.0 0.00 0.04 0.00 100 1023.7
20181115054124 53 226 5.0 0.0 0.00 0.04 0.00 100 1023.7
20181115053124 53 226 5.0 0.0 0.00 0.04 0.00 100 1023.7
20181115052125 53 226 5.0 0.0 0.00 0.04 0.00 100 1023.7
20181115051124 53 226 5.0 0.0 0.00 0.04 0.00 100 1023.7
20181115050124 53 226 5.0 0.0 0.00 0.04 0.00 100 1023.7
20181115045125 53 226 5.0 0.0 0.00 0.04 0.00 100 1023.8
20181115044125 53 226 5.0 0.0 0.00 0.04 0.00 100 1023.7
20181115043124 53 226 5.0 0.0 0.00 0.04 0.00 100 1023.7
20181115042125 53 226 5.0 0.0 0.00 0.04 0.00 100 1023.9
20181115041125 53 226 5.0 0.0 0.00 0.04 0.00 100 1023.9
20181115040124 53 226 5.0 0.0 0.00 0.04 0.00 100 1024.1
20181115035125 53 226 5.0 0.0 0.00 0.04 0.00 100 1024.1
20181115034125 53 226 5.0 0.0 0.00 0.04 0.00 100 1024.2
20181115033125 53 226 5.0 0.0 0.00 0.04 0.00 100 1024.3
20181115032124 53 226 5.0 0.0 0.00 0.04 0.00 100 1024.5
20181115031125 53 226 5.0 0.0 0.00 0.04 0.00 100 1024.9
20181115030125 53 226 5.0 0.0 0.00 0.04 0.00 100 1025.8
20181115025124 53 226 5.0 0.0 0.00 0.04 0.00 100 1028.9
20181115024125 53 226 5.0 0.0 0.00 0.04 0.00 100 1014.9
20181115023124 53 226 5.0 6.0 0.00 0.04 0.00 100 1014.9
20181115022125 54 248 9.0 17.0 0.01 0.05 0.00 98 1014.9
20181115021124 54 226 12.0 15.0 0.01 0.04 0.00 98 1015.0
20181115020124 54 208 4.0 16.0 0.02 0.06 0.00 98 1015.0
20181115015125 54 210 3.0 17.0 0.02 0.08 0.00 98 1015.0
20181115014125 54 193 6.0 13.0 0.03 0.11 0.00 98 1015.1
20181115013124 54 194 9.0 14.0 0.03 0.11 0.00 98 1015.0
20181115012124 54 188 5.0 17.0 0.03 0.11 0.00 98 1015.0
20181115011125 54 245 4.0 18.0 0.02 0.11 0.00 98 1015.2
20181115010125 54 269 4.0 16.0 0.01 0.11 0.00 97 1015.2
20181115005124 54 186 11.0 13.0 0.01 0.12 0.00 97 1015.2
20181115004125 54 218 10.0 16.0 0.00 0.11 0.00 97 1015.2
20181115003124 54 280 5.0 17.0 0.00 0.11 0.00 97 1015.2
20181115002125 54 210 5.0 18.0 0.00 0.11 0.00 97 1015.2
20181115001125 54 191 6.0 14.0 0.00 0.12 0.00 97 1015.2
20181115000125 54 210 3.0 14.0 0.00 0.12 0.00 97 1015.2
20181114235124 54 193 9.0 12.0 0.00 0.13 0.00 96 1015.3
20181114234124 54 224 9.0 16.0 0.00 0.14 0.00 96 1015.3
20181114233125 54 252 8.0 14.0 0.00 0.17 0.00 96 1015.2
20181114232124 54 219 10.0 15.0 0.00 0.18 0.00 96 1015.2
20181114231124 54 266 8.0 16.0 0.00 0.19 0.00 96 1015.2
20181114230124 54 229 5.0 12.0 0.00 0.21 0.00 96 1015.2
20181114225124 54 281 4.0 13.0 0.00 0.22 0.00 96 1015.2
20181114224124 54 241 11.0 15.0 0.00 0.23 0.00 95 1015.2
20181114223124 54 250 4.0 13.0 0.00 0.25 0.00 95 1015.2
20181114222124 54 224 5.0 13.0 0.00 0.28 0.00 95 1015.2
20181114221124 54 204 7.0 16.0 0.00 0.29 0.00 95 1015.2
20181114220124 54 236 5.0 17.0 0.00 0.33 0.00 95 1015.2
20181114215125 54 239 9.0 14.0 0.00 0.35 0.00 95 1015.3
20181114214125 54 240 8.0 14.0 0.00 0.38 0.00 95 1015.3
20181114213124 54 261 8.0 18.0 0.00 0.40 0.00 95 1015.3
20181114212124 54 277 7.0 17.0 0.00 0.44 0.00 95 1015.4
20181114211124 54 248 3.0 15.0 0.00 0.48 0.00 95 1015.2
20181114210124 54 202 10.0 17.0 0.00 0.53 0.00 95 1029.2
20181114205124 54 201 5.0 14.0 0.00 0.59 0.00 95 1026.1
20181114204125 54 191 8.0 16.0 0.00 0.63 0.00 95 1025.3
20181114203124 54 282 8.0 16.0 0.00 0.67 0.00 94 1025.0
20181114202124 54 214 5.0 16.0 0.00 0.71 0.00 94 1024.8
20181114201124 54 249 8.0 18.0 0.00 0.73 0.00 94 1024.6
20181114200124 54 248 5.0 18.0 0.00 0.74 0.00 94 1024.6
20181114195124 54 167 4.0 19.0 0.00 0.74 0.00 94 1024.5
20181114194124 54 180 2.0 16.0 0.00 0.74 0.00 94 1024.5
20181114193124 54 134 4.0 14.0 0.00 0.74 0.00 94 1024.3
20181114192125 54 198 12.0 15.0 0.00 0.74 0.00 94 1024.3
20181114191124 54 208 8.0 18.0 0.00 0.74 0.00 94 1024.3
20181114190124 54 225 10.0 18.0 0.00 0.75 0.00 94 1024.3
20181114185125 54 204 6.0 15.0 0.00 0.75 0.00 94 1024.3
20181114184124 54 194 6.0 19.0 0.00 0.75 0.00 94 1024.3